GFSFLT2_con_3kmhel_231.txt.gz
Helicity
94 97 125 183 192 178 153 131 109 90 80 71 69 61 59 59 58 59 57 67 56 41 35 30 24 29 32 33 20 4 -6 4
88 83 82 111 143 177 165 142 115 93 81 74 68 68 61 59 57 55 65 60 66 60 46 35 33 28 25 16 17 24 19 20
60 74 76 68 107 129 153 142 119 96 82 78 82 63 60 61 48 57 60 74 72 69 65 61 53 50 47 40 34 34 34 29
40 58 74 78 89 110 122 123 116 106 96 103 84 72 65 57 58 60 58 61 72 72 72 72 65 60 54 50 49 53 47 49
38 81 73 90 107 121 113 117 121 106 106 114 94 84 76 73 78 73 66 60 63 69 78 75 73 73 74 67 65 59 61 61
60 49 57 66 105 133 148 151 139 128 118 128 134 125 104 89 74 69 73 69 68 71 75 83 85 80 77 71 71 73 71 69
35 36 22 62 89 96 117 167 178 153 148 138 146 147 133 110 88 85 77 82 74 72 74 72 76 77 79 80 78 71 72 72
45 28 10 74 72 73 101 146 179 181 168 165 158 149 145 128 115 102 85 81 78 73 75 79 76 72 74 73 72 71 72 76
61 61 45 67 71 60 101 129 171 182 181 170 168 155 148 139 125 123 100 91 88 90 89 91 82 75 69 73 72 75 79 80
82 99 106 101 90 79 98 119 162 168 184 191 167 155 151 151 135 120 107 110 107 103 95 86 79 77 80 82 82 79 82 85
83 119 114 148 137 115 98 107 122 144 150 144 158 164 159 153 138 120 116 113 114 107 97 83 80 78 75 79 76 69 66 68
71 96 97 131 172 178 137 119 101 97 129 147 162 163 157 155 135 125 129 125 113 112 97 90 77 69 65 56 52 48 50 61
93 96 104 163 170 204 202 193 168 142 120 137 160 185 165 158 147 137 138 130 115 105 95 108 106 84 81 67 69 63 69 84
114 130 124 167 214 240 250 205 187 171 161 125 158 163 187 175 152 139 138 135 114 115 134 167 147 140 138 129 99 95 107 113
132 136 172 185 191 238 277 251 207 170 194 197 234 175 173 179 170 151 148 157 153 150 186 167 210 175 165 188 169 121 145 121
142 146 137 160 192 232 302 339 305 273 236 247 280 196 183 193 188 168 163 186 176 172 214 229 266 226 223 197 218 208 153 127
110 130 131 141 192 237 271 241 183 191 234 239 265 235 223 215 199 177 177 202 196 209 271 268 234 223 273 252 238 231 207 171
100 102 89 138 162 192 221 210 215 209 210 248 292 270 265 268 240 212 199 221 258 257 263 290 284 248 252 243 256 225 188 158
70 70 81 111 134 142 158 159 174 208 204 236 314 333 303 278 281 268 233 261 277 288 279 286 306 281 258 247 194 210 175 167
95 68 75 65 86 107 131 167 201 196 217 230 319 359 242 245 275 256 258 289 281 314 359 367 343 339 284 241 228 196 171 163

GFSFLT2_con_3kmhel_237.txt.gz
Helicity
94 61 52 65 85 93 94 91 88 85 75 65 58 52 46 41 33 30 37 36 33 27 24 15 5 3 -0 -2 11 40 66 13
73 67 54 39 35 66 83 80 75 77 70 61 52 48 44 40 39 36 40 41 40 36 36 31 20 12 6 8 13 23 34 17
57 66 66 56 49 47 62 58 63 68 67 58 59 32 41 48 23 80 44 44 45 46 41 40 33 25 16 9 2 -2 1 11
58 54 71 71 55 69 59 52 42 48 51 64 43 35 38 43 50 67 48 49 52 55 54 44 32 33 33 21 10 2 20 25
46 59 73 77 73 79 63 67 57 52 61 67 41 43 48 44 70 59 49 52 52 56 54 40 33 1 52 32 22 47 16 33
39 49 72 68 70 83 67 63 67 66 71 81 54 58 90 69 71 70 58 65 44 56 48 29 31 37 54 53 48 38 51 58
48 55 62 69 51 76 55 59 65 53 71 86 56 62 99 88 86 76 65 78 55 70 47 52 60 52 55 50 52 48 63 54
64 59 57 59 63 94 64 71 78 55 64 74 66 70 105 82 94 83 80 74 60 72 64 77 62 60 60 58 58 59 58 62
96 67 66 52 56 73 60 55 29 74 54 96 111 69 99 71 80 86 82 78 87 86 93 82 77 67 58 65 65 65 78 110
106 59 61 56 59 63 48 28 47 41 35 72 80 66 60 99 87 86 86 99 109 107 107 103 84 76 79 92 86 104 93 90
124 91 62 68 59 56 56 58 59 40 69 66 119 96 79 104 69 101 115 109 121 108 110 103 112 101 99 109 94 85 78 71
113 126 75 81 84 78 62 51 60 54 74 85 123 131 118 125 107 117 162 111 117 108 114 107 93 107 75 73 94 74 69 75
120 133 104 115 115 131 111 105 87 86 89 108 134 141 108 159 128 150 197 145 123 143 120 96 139 108 106 70 75 63 57 61
129 104 104 115 127 117 107 113 112 108 113 127 147 143 152 166 196 187 204 172 145 157 153 129 143 96 121 72 89 72 72 65
120 107 94 94 97 124 131 120 116 131 151 157 167 167 166 175 220 219 270 235 187 187 191 150 192 145 104 131 136 122 167 154
144 134 99 116 112 143 153 188 190 220 239 221 198 202 203 216 235 249 282 333 215 233 212 193 213 162 176 129 186 254 225 233
124 115 113 107 132 150 179 187 216 192 202 201 231 238 214 232 265 276 265 344 282 235 238 232 207 184 240 155 184 211 218 234
84 46 76 110 137 148 149 142 155 198 205 248 270 286 303 283 257 252 267 295 314 263 269 283 207 191 264 223 239 307 247 229
169 207 162 118 119 137 124 129 145 150 202 274 321 307 329 285 292 268 287 276 310 307 276 275 229 270 244 261 229 230 309 268
166 127 142 148 155 122 168 174 192 210 216 284 280 250 257 243 255 225 248 239 279 271 277 267 242 213 212 348 366 366 333 282

GFSFLT2_con_3kmhel_240.txt.gz
Helicity
96 65 56 64 60 68 72 77 74 65 53 40 35 32 32 32 24 17 20 17 14 13 14 13 7 -4 -10 10 29 50 84 170
106 79 64 46 34 50 72 73 72 64 56 48 34 24 21 22 26 21 25 23 20 19 21 19 12 6 2 2 17 36 81 111
94 81 66 51 48 42 67 64 64 64 55 48 51 16 12 16 12 34 20 20 18 22 24 22 15 11 6 2 -0 4 28 47
86 76 81 66 50 66 63 66 59 55 47 50 41 18 21 15 13 38 28 24 22 22 22 24 20 17 23 14 13 1 37 31
78 77 90 85 85 100 86 78 76 51 45 60 30 17 38 29 81 52 41 38 32 32 27 16 14 -23 67 55 28 15 24 35
87 76 98 76 107 129 115 115 96 83 63 72 40 16 88 59 102 83 63 64 36 53 36 16 -5 -3 11 32 27 38 35 126
98 100 102 66 110 126 130 118 128 115 112 96 65 41 113 74 94 88 88 100 57 88 42 50 9 10 21 69 66 50 23 107
140 99 113 80 57 140 104 101 113 106 119 124 99 73 102 89 50 144 93 97 79 85 63 99 44 84 62 55 46 53 56 61
197 133 118 99 67 117 111 80 134 102 105 126 118 79 78 122 71 117 115 72 120 73 102 84 113 80 76 89 63 67 65 109
226 186 158 115 85 87 128 84 59 120 100 141 173 94 86 135 105 68 92 131 149 166 132 138 112 98 74 71 121 55 86 109
279 210 172 157 119 91 116 82 112 92 127 111 191 170 119 151 122 101 106 127 180 178 162 156 134 79 138 147 149 143 128 98
374 299 188 152 165 110 109 108 103 91 105 117 173 198 161 101 148 107 168 143 178 200 167 163 122 115 99 92 105 119 115 106
372 340 236 188 172 184 171 171 162 136 88 142 155 207 209 163 143 149 194 250 222 201 180 153 151 129 145 114 114 110 102 88
311 374 288 211 176 179 215 196 172 162 143 146 193 239 248 210 177 174 188 283 283 245 241 202 161 241 210 162 123 107 105 85
285 339 333 239 181 178 177 180 156 162 165 164 202 248 287 249 212 209 235 294 323 298 291 271 217 230 250 188 155 163 168 163
271 229 313 302 188 152 185 214 236 239 237 250 245 271 290 280 227 228 227 304 316 339 292 308 271 308 278 170 141 207 249 277
165 197 320 205 188 129 154 167 191 210 251 249 260 269 280 279 267 251 259 316 336 373 337 339 314 353 304 307 182 235 217 349
165 173 193 203 214 148 146 189 191 224 241 255 302 311 308 282 287 302 319 305 377 381 364 331 346 350 304 307 273 327 288 333
80 105 130 141 168 215 180 190 206 191 237 255 251 301 342 344 350 365 369 354 343 386 367 337 341 374 339 332 282 302 305 291
213 210 165 153 169 148 172 204 229 238 194 226 232 312 360 398 389 363 363 333 305 367 341 363 333 353 272 328 362 381 397 323

GFSFLT2_con_3kmhel_243.txt.gz
Helicity
99 72 77 70 67 64 50 46 41 38 38 27 19 7 13 10 16 15 12 10 6 1 -5 -15 -25 -27 1 10 21 41 47 -4
113 83 78 61 44 62 58 56 51 40 35 35 27 15 5 7 10 14 15 15 11 11 8 2 -6 -16 1 17 26 66 57 10
117 107 80 71 58 46 59 72 71 59 33 32 36 18 12 2 2 15 20 16 13 13 11 5 -1 -6 -11 -5 13 40 90 52
129 106 92 91 80 70 71 80 77 71 60 38 27 26 19 13 3 19 23 25 24 20 17 13 3 -9 -13 -10 5 23 47 72
124 111 103 115 101 106 95 96 88 75 70 58 23 16 16 24 34 27 25 28 25 25 17 0 -3 -9 -7 18 16 1 25 78
142 105 111 107 129 134 125 140 105 81 66 65 49 29 24 49 64 58 44 29 32 28 17 5 -6 -9 1 30 23 3 45 89
139 134 113 109 132 145 147 141 129 97 87 71 62 54 58 79 80 81 65 60 43 41 33 20 1 -8 -8 12 12 7 54 72
151 131 124 117 110 142 169 144 135 134 112 85 76 73 80 87 91 81 76 85 63 66 49 36 12 16 27 49 48 65 45 116
169 175 140 114 153 147 152 160 148 150 133 113 90 74 92 90 112 101 86 81 78 74 59 62 50 32 40 47 52 47 50 75
235 205 181 117 139 136 130 146 141 132 135 134 121 90 110 99 101 124 100 104 89 87 65 74 72 71 71 54 57 56 50 98
329 248 213 157 140 173 131 118 151 104 127 128 116 104 103 148 125 99 138 131 145 116 104 125 132 118 82 64 91 94 76 113
440 357 255 211 174 165 162 128 110 140 122 168 169 113 92 149 146 116 109 141 183 220 199 178 176 128 96 110 128 128 135 138
418 402 304 297 249 201 184 177 183 140 153 128 201 189 145 142 159 148 143 146 184 226 250 214 185 167 130 90 110 99 103 118
400 391 405 338 306 252 229 233 175 191 145 148 207 239 230 179 173 163 149 183 204 241 281 275 225 207 191 184 164 141 115 120
424 405 412 393 336 314 292 281 218 171 141 124 171 232 271 247 198 205 178 196 221 275 305 322 266 242 279 305 235 208 170 138
436 410 460 401 396 384 296 315 293 195 173 203 209 238 285 306 290 253 250 232 221 284 338 339 347 286 308 300 309 240 243 216
417 380 382 427 420 358 359 279 267 230 208 213 215 248 288 322 332 323 287 298 265 311 355 379 346 310 352 378 356 330 317 317
348 317 318 373 442 392 302 249 201 210 244 230 266 258 297 339 355 370 351 333 307 362 402 398 384 352 320 359 371 355 415 429
290 276 282 359 431 362 177 230 225 198 225 270 269 304 330 322 362 367 364 344 330 353 385 416 406 403 396 362 343 314 386 443
341 355 334 181 221 180 156 230 280 159 182 219 287 331 354 322 330 340 344 344 339 354 391 406 400 399 394 366 358 303 379 416